This demonstration page uses our WeatherBlox Daily Observations layout. Learn more.

40.92945, -100.16068

Hourly Observations for June 22, 2019

Temp ( °F °C ) Dew Point ( °F °C ) Humidity (%) Winds ( mph kmh ) Pressure ( in mb ) Visibility ( mi km ) Precip ( " mm )
12:15 am 00:15 Partly Cloudy 61 16 45 7.2 56 56 NW 3 6 29.85 1011 10 16.09344 0 0
12:35 am 00:35 Clear 61 16.3 45 7.4 56 56 NNE 9 15 29.83 1010 10 16.09344 0 0
12:55 am 00:55 Partly Cloudy 61 16 46 7.6 58 58 NW 3 6 29.85 1011 10 16.09344 0 0
1:15 am 01:15 Cloudy 62 16.6 48 8.7 60 60 Calm 29.88 1012 10 16.09344 0 0
1:35 am 01:35 Cloudy 61 16.1 47 8.1 59 59 N 9 15 29.85 1011 10 16.09344 0 0
1:55 am 01:55 Partly Cloudy 60 15.8 47 8.3 61 61 N 10 17 29.91 1013 10 16.09344 0 0
2:15 am 02:15 Mostly Cloudy 60 15.7 48 9.1 65 65 N 8 13 29.91 1013 10 16.09344 0 0
2:35 am 02:35 Partly Cloudy 59 15 50 9.9 72 72 N 9 15 29.88 1012 10 16.09344 0 0
2:55 am 02:55 Mostly Cloudy 59 15.1 51 10.6 75 75 N 9 15 29.88 1012 10 16.09344 0 0
3:15 am 03:15 Cloudy 60 15.6 51 10.6 72 72 N 8 13 29.91 1013 10 16.09344 0 0
3:35 am 03:35 Cloudy 60 15.5 51 10.8 74 74 N 8 13 29.91 1013 10 16.09344 0 0
3:55 am 03:55 Mostly Cloudy 58 14.7 50 9.8 73 73 NE 14 22 29.88 1012 10 16.09344 0 0
4:15 am 04:15 Clear 58 14.5 48 9.1 70 70 NE 12 19 29.85 1011 10 16.09344 0 0
4:35 am 04:35 Partly Cloudy 57 13.8 49 9.2 74 74 NNE 10 17 29.85 1011 10 16.09344 0 0
4:55 am 04:55 Mostly Cloudy 57 13.8 48 8.8 72 72 NNE 8 13 29.88 1012 10 16.09344 0 0
5:15 am 05:15 Cloudy 57 14.1 49 9.2 73 73 NNE 6 9 29.91 1013 10 16.09344 0 0
5:35 am 05:35 Cloudy 58 14.3 49 9.5 73 73 NW 8 13 29.94 1014 10 16.09344 0 0
5:55 am 05:55 Cloudy 58 14.3 50 9.9 75 75 NW 9 15 29.94 1014 10 16.09344 0 0
6:15 am 06:15 Cloudy 58 14.2 51 10.4 78 78 NNE 8 13 29.91 1013 10 16.09344 0 0
6:35 am 06:35 Cloudy 57 14 50 10.2 78 78 N 9 15 29.91 1013 10 16.09344 0 0
6:55 am 06:55 Cloudy 58 14.5 51 10.4 77 77 N 10 17 29.88 1012 10 16.09344 0 0
7:15 am 07:15 Cloudy 58 14.5 51 10.5 77 77 N 9 15 29.88 1012 10 16.09344 0 0
7:35 am 07:35 Cloudy 58 14.7 52 11 79 79 NNE 12 19 29.88 1012 10 16.09344 0 0
7:55 am 07:55 Cloudy 59 14.9 53 11.5 80 80 NNE 10 17 29.91 1013 10 16.09344 0 0
8:15 am 08:15 Cloudy 59 15.1 54 12.1 82 82 N 7 11 29.91 1013 10 16.09344 0 0
8:35 am 08:35 Cloudy 59 15.2 54 12.3 83 83 NNE 10 17 29.91 1013 10 16.09344 0 0
8:55 am 08:55 Cloudy 60 15.5 55 12.8 84 84 NNE 8 13 29.91 1013 10 16.09344 0 0
9:15 am 09:15 Cloudy 60 15.3 55 13 86 86 N 9 15 29.94 1014 10 16.09344 0 0
9:35 am 09:35 Cloudy 60 15.4 56 13.1 86 86 N 8 13 29.94 1014 10 16.09344 0 0
9:55 am 09:55 Cloudy 59 15.1 56 13.1 88 88 N 9 15 29.94 1014 10 16.09344 0 0
10:15 am 10:15 Cloudy 59 14.8 54 12.4 86 86 NNE 12 19 29.91 1013 10 16.09344 0 0
10:35 am 10:35 Cloudy 58 14.6 54 12 85 85 NNE 12 19 29.91 1013 10 16.09344 0 0
10:55 am 10:55 Cloudy 58 14.3 54 12.2 87 87 N 9 15 29.94 1014 10 16.09344 0 0
11:15 am 11:15 Cloudy 58 14.3 55 12.6 90 90 N 12 19 29.91 1013 10 16.09344 0 0
11:35 am 11:35 Cloudy 59 15.1 55 12.9 87 87 N 10 17 29.91 1013 10 16.09344 0 0
11:55 am 11:55 Cloudy 60 15.4 56 13.1 86 86 NNW 10 17 29.94 1014 10 16.09344 0 0
12:15 pm 12:15 Cloudy 60 15.4 55 13 86 86 NNW 13 20 29.94 1014 10 16.09344 0 0
12:35 pm 12:35 Cloudy 57 14 54 12 88 88 NW 14 22 29.94 1014 10 16.09344 0 0
12:55 pm 12:55 Cloudy 57 14 53 11.7 86 86 NNW 15 24 29.94 1014 10 16.09344 0 0
1:15 pm 13:15 Cloudy 58 14.2 54 12 87 87 NNW 10 17 29.94 1014 10 16.09344 0 0
1:35 pm 13:35 Cloudy 57 14 53 11.7 86 86 N 16 26 29.94 1014 10 16.09344 0 0
1:55 pm 13:55 Cloudy 58 14.6 54 12.1 85 85 N 12 19 29.94 1014 10 16.09344 0 0
2:15 pm 14:15 Cloudy 58 14.6 54 12.1 85 85 N 12 19 29.94 1014 10 16.09344 0 0
2:35 pm 14:35 Cloudy 58 14.6 54 12.3 86 86 N 9 15 29.94 1014 10 16.09344 0 0
2:55 pm 14:55 Cloudy 59 15 54 12 82 82 N 9 15 29.94 1014 10 16.09344 0 0
3:15 pm 15:15 Cloudy 59 15 54 12.1 83 83 N 12 19 29.94 1014 10 16.09344 0 0
3:35 pm 15:35 Cloudy 59 15.1 53 11.8 81 81 N 13 20 29.97 1015 10 16.09344 0 0
3:55 pm 15:55 Cloudy 59 15 53 11.6 80 80 N 12 19 29.94 1014 10 16.09344 0 0
4:15 pm 16:15 Cloudy 59 15.1 53 11.5 79 79 NNW 12 19 29.94 1014 10 16.09344 0 0
4:35 pm 16:35 Cloudy 59 15 53 11.6 80 80 NNW 14 22 29.94 1014 10 16.09344 0 0
4:55 pm 16:55 Cloudy 58 14.6 52 11.3 81 81 N 12 19 29.94 1014 10 16.09344 0 0
5:15 pm 17:15 Cloudy 59 14.9 52 11.1 78 78 N 12 19 29.94 1014 10 16.09344 0 0
5:35 pm 17:35 Cloudy 59 15 52 10.9 77 77 NNE 12 19 29.94 1014 10 16.09344 0 0
5:55 pm 17:55 Cloudy 58 14.7 50 10.2 75 75 NNE 15 24 29.91 1013 10 16.09344 0 0
6:15 pm 18:15 Cloudy 60 15.4 51 10.5 73 73 NE 14 22 29.88 1012 10 16.09344 0 0
6:35 pm 18:35 Cloudy 60 15.5 52 11.3 76 76 ENE 15 24 29.88 1012 10 16.09344 0 0
6:55 pm 18:55 Cloudy 61 16 54 12 77 77 NNE 10 17 29.85 1011 10 16.09344 0 0
7:15 pm 19:15 Cloudy 60 15.6 54 12.2 80 80 N 12 19 29.85 1011 10 16.09344 0 0
7:35 pm 19:35 Cloudy 60 15.7 54 12.4 81 81 NNE 9 15 29.85 1011 10 16.09344 0 0
7:55 pm 19:55 Cloudy 60 15.5 56 13.1 86 86 N 10 17 29.88 1012 10 16.09344 0 0
8:15 pm 20:15 Cloudy 60 15.3 56 13.4 89 89 N 8 13 29.88 1012 10 16.09344 0 0
8:35 pm 20:35 Cloudy 59 15 56 13.5 91 91 N 10 17 29.88 1012 10 16.09344 0 0
8:55 pm 20:55 Cloudy 58 14.5 56 13.3 93 93 N 9 15 29.88 1012 10 16.09344 0 0
9:15 pm 21:15 Cloudy 58 14.5 56 13.3 93 93 NNE 7 11 29.88 1012 10 16.09344 0 0
9:35 pm 21:35 Mostly Cloudy 57 13.8 55 13 95 95 N 6 9 29.88 1012 10 16.09344 0 0
9:55 pm 21:55 Partly Cloudy 56 13.5 55 12.8 96 96 N 8 13 29.91 1013 10 16.09344 0 0
10:15 pm 22:15 Mostly Cloudy 57 13.8 55 13 95 95 N 7 11 29.91 1013 10 16.09344 0 0
10:35 pm 22:35 Cloudy 57 14 55 13 94 94 N 6 9 29.91 1013 10 16.09344 0 0
10:55 pm 22:55 Cloudy 57 14 55 13 94 94 NW 9 15 29.94 1014 10 16.09344 0 0
11:15 pm 23:15 Cloudy 57 13.8 55 13 95 95 NW 9 15 29.94 1014 10 16.09344 0 0
11:35 pm 23:35 Cloudy with Light Rain 56 13.5 55 13 97 97 NNW 6 9 29.94 1014 7 11.265408 0 0
11:55 pm 23:55 Mostly Cloudy 56 13.2 55 12.9 98 98 Calm 29.94 1014 10 16.09344 0 0

Powered by AerisWeather